カタログに戻る

THOR ABLESTAR DEB

運用中LEO
NORAD 48817·DEBRIS·🇺🇸 United States

打ち上げ Jun 29, 1961 から Cape Canaveral Space Force Station

Loading…

次のパス (今後24時間)

TLE

最新Source: Space-Track

元期: Sep 14, 2026, 03:14 UTC

1 48817U 61015MV  26257.13528810  .00000092  00000-0  12033-3 0  9994
2 48817  65.8409 139.7702 0206605 173.5837 186.7957 13.89989966649622

AllMySatでTHOR ABLESTAR DEBをリアルタイム追跡

Download on the App Store